Weather History for KIJD - February, 2012

Change the Weather History Date:

Saturday, February 11, 2012

  Actual Average Record
Temperature  
Mean Temperature 34 °F -  
Max Temperature 39 °F 36 °F 59 °F (2009)
Min Temperature 28 °F 9 °F -14 °F (1962)
Degree Days  
Heating Degree Days 30    
Moisture  
Dew Point 27 °F    
Average Humidity 76    
Maximum Humidity 93    
Minimum Humidity 43    
Precipitation  
Precipitation 0.00 in - - ()
Sea Level Pressure  
Sea Level Pressure 29.72 in    
Wind  
Wind Speed 3 mph (North)    
Max Wind Speed 16 mph    
Max Gust Speed 23 mph    
Visibility 5 miles    
Events Snow    
Averages and records for this station are not official NWS values.
T = Trace of Precipitation, MM = Missing Value Source: NWS Daily Summary

Daily Weather History Graph

Daily Weather History Graph

Search for Another Location

Airport or City:

Trip Planner

Search our weather history database for the weather conditions in past years. The results will help you decide how hot, cold, wet, or windy it might be!

Date:

Astronomy

Feb. 11, 2012 Rise Set
Actual Time 6:50 AM EST 5:16 PM EST
Civil Twilight 6:21 AM EST 5:45 PM EST
Nautical Twilight 5:48 AM EST 6:17 PM EST
Astronomical Twilight 5:16 AM EST 6:50 PM EST
Moon 10:06 PM EST (2/11) 8:25 AM EST (2/11)
Length of Visible Light 11h 23m
Length of Day
10h 26m
Waning Gibbous, 82% of the Moon is Illuminated
Feb 11
Waning Gibbous
Feb 14
Last Quarter
Feb 21
New
Feb 29
First Quarter
Mar 8
Full

Hourly Weather History & Observations

Time (EST) Temp. Windchill Dew Point Humidity Pressure Visibility Wind Dir Wind Speed Gust Speed Precip Events Conditions
12:52 AM 35.1 °F 31.0 °F 30.0 °F 82% 29.90 in 5.0 mi SW 4.6 mph - 0.00 in Snow Light Snow
1:13 AM 33.8 °F - 30.2 °F 87% 29.89 in 3.0 mi Calm Calm - 0.00 in Snow Light Snow
1:25 AM 33.8 °F - 30.2 °F 87% 29.89 in 2.5 mi Calm Calm - 0.00 in Snow Light Snow
1:52 AM 33.1 °F - 30.9 °F 92% 29.89 in 2.0 mi Calm Calm - 0.00 in Snow Light Snow
2:06 AM 33.8 °F - 30.2 °F 87% 29.87 in 2.5 mi Calm Calm - 0.00 in Snow Light Snow
2:33 AM 33.8 °F - 32.0 °F 93% 29.86 in 3.0 mi Calm Calm - 0.00 in Snow Light Snow
2:52 AM 33.1 °F - 30.9 °F 92% 29.87 in 4.0 mi Calm Calm - 0.00 in   Overcast
3:52 AM 33.1 °F - 30.9 °F 92% 29.84 in 5.0 mi Calm Calm - N/A   Overcast
4:52 AM 33.1 °F 30.0 °F 30.9 °F 92% 29.83 in 4.0 mi SSE 3.5 mph - N/A   Overcast
5:52 AM 33.1 °F - 30.9 °F 92% 29.82 in 3.0 mi Calm Calm - N/A   Overcast
6:27 AM 33.8 °F - 30.2 °F 87% 29.80 in 2.5 mi Calm Calm - 0.00 in Snow Light Snow
6:39 AM 33.8 °F - 30.2 °F 87% 29.80 in 1.8 mi Calm Calm - 0.00 in Snow Light Snow
6:52 AM 33.1 °F - 30.0 °F 89% 29.80 in 1.5 mi Calm Calm - 0.00 in Snow Light Snow
7:17 AM 33.8 °F - 30.2 °F 87% 29.79 in 1.0 mi Calm Calm - 0.00 in Snow Light Snow
7:42 AM 33.8 °F - 30.2 °F 87% 29.79 in 0.8 mi Calm Calm - 0.00 in   Overcast
7:48 AM 33.8 °F - 30.2 °F 87% 29.79 in 1.0 mi Calm Calm - 0.00 in   Overcast
7:52 AM 33.1 °F - 30.9 °F 92% 29.79 in 1.0 mi Calm Calm - 0.00 in Snow Light Snow
8:10 AM 33.8 °F - 30.2 °F 87% 29.78 in 1.0 mi Calm Calm - 0.00 in Snow Light Snow
8:52 AM 33.1 °F - 30.9 °F 92% 29.78 in 1.0 mi Calm Calm - 0.00 in Snow Light Snow
9:11 AM 33.8 °F - 30.2 °F 87% 29.76 in 1.5 mi Calm Calm - 0.00 in Snow Light Snow
9:19 AM 33.8 °F 30.8 °F 30.2 °F 87% 29.76 in 1.5 mi North 3.5 mph - 0.00 in Snow Light Snow
9:32 AM 33.8 °F 29.6 °F 30.2 °F 87% 29.75 in 2.0 mi North 4.6 mph - 0.00 in Snow Light Snow
9:49 AM 33.8 °F 29.6 °F 30.2 °F 87% 29.75 in 2.5 mi North 4.6 mph - 0.00 in Snow Light Snow
9:52 AM 34.0 °F 29.8 °F 30.9 °F 89% 29.76 in 2.5 mi NNW 4.6 mph - 0.00 in Snow Light Snow
9:59 AM 33.8 °F 29.6 °F 30.2 °F 87% 29.75 in 2.5 mi North 4.6 mph - 0.00 in Snow Light Snow
10:06 AM 33.8 °F 29.6 °F 30.2 °F 87% 29.74 in 3.0 mi North 4.6 mph - 0.00 in   Overcast
10:17 AM 33.8 °F 29.6 °F 30.2 °F 87% 29.73 in 5.0 mi North 4.6 mph - 0.00 in   Overcast
10:52 AM 34.0 °F 28.0 °F 28.9 °F 82% 29.73 in 8.0 mi North 6.9 mph - 0.00 in   Overcast
11:52 AM 36.0 °F 30.3 °F 28.0 °F 73% 29.69 in 10.0 mi North 6.9 mph - N/A   Overcast
12:05 PM 35.6 °F 29.9 °F 28.4 °F 75% 29.67 in 10.0 mi North 6.9 mph - N/A   Overcast
12:52 PM 37.9 °F 32.7 °F 28.0 °F 68% 29.64 in 10.0 mi NNE 6.9 mph - N/A   Mostly Cloudy
1:22 PM 37.4 °F 30.3 °F 26.6 °F 65% 29.61 in 10.0 mi NNE 10.4 mph - N/A   Mostly Cloudy
1:31 PM 37.4 °F 31.4 °F 26.6 °F 65% 29.61 in 10.0 mi NNE 8.1 mph - N/A   Overcast
1:38 PM 37.4 °F 30.3 °F 26.6 °F 65% 29.60 in 10.0 mi NNE 10.4 mph - N/A   Overcast
1:52 PM 39.0 °F 33.4 °F 26.1 °F 60% 29.60 in 10.0 mi NNE 8.1 mph - N/A   Overcast
2:52 PM 39.0 °F 32.8 °F 23.0 °F 53% 29.57 in 10.0 mi NNE 9.2 mph - N/A   Overcast
3:52 PM 39.0 °F 33.4 °F 21.9 °F 50% 29.55 in 10.0 mi North 8.1 mph 17.3 mph N/A   Overcast
4:52 PM 39.0 °F 33.4 °F 19.9 °F 46% 29.53 in 10.0 mi North 8.1 mph - N/A   Overcast
5:52 PM 39.0 °F 32.3 °F 18.0 °F 43% 29.53 in 10.0 mi North 10.4 mph - N/A   Overcast
6:52 PM 37.0 °F 31.0 °F 19.0 °F 48% 29.54 in 10.0 mi North 8.1 mph 17.3 mph N/A   Overcast
7:52 PM 37.0 °F 29.3 °F 18.0 °F 46% 29.55 in 10.0 mi North 11.5 mph 20.7 mph N/A   Overcast
8:52 PM 35.1 °F 25.2 °F 16.0 °F 46% 29.55 in 10.0 mi North 16.1 mph 23.0 mph N/A   Clear
9:52 PM 33.1 °F 23.4 °F 17.1 °F 52% 29.57 in 10.0 mi NNW 13.8 mph 21.9 mph N/A   Clear
10:52 PM 30.9 °F 21.2 °F 16.0 °F 54% 29.58 in 10.0 mi NNW 12.7 mph 19.6 mph N/A   Clear
11:52 PM 28.9 °F 17.3 °F 12.9 °F 51% 29.60 in 10.0 mi NNW 16.1 mph 23.0 mph N/A   Clear